RH
64 66 69 69 70 69 68 68 71 71 71 74 73 71 78 75 57 57 65 67 67 62 70 68 74 75 70 75 67 73 68 64 64
66 70 72 71 70 69 70 73 76 77 74 71 68 78 83 62 61 63 66 63 61 64 64 72 73 73 73 74 75 74 77 79 75
68 71 73 72 72 72 74 76 77 71 63 61 65 77 78 66 64 61 54 65 58 59 61 71 70 69 69 70 71 70 72 74 76
68 71 72 73 76 75 77 78 69 56 58 61 68 76 72 50 50 46 47 68 52 55 66 71 68 66 67 66 70 71 72 72 71
76 80 78 74 76 77 80 74 59 56 57 67 75 74 67 46 46 42 43 55 54 69 73 72 69 67 66 65 64 64 65 65 66
70 83 84 82 82 81 77 68 63 63 62 58 66 61 43 42 44 44 71 72 72 71 69 68 65 64 64 61 62 64 65 66 67
71 80 88 85 86 84 72 66 60 37 26 31 51 42 48 55 61 56 77 70 70 68 67 65 64 62 61 61 61 61 61 61 62
75 75 76 75 85 64 53 40 28 28 26 30 40 49 58 59 62 67 76 63 60 61 60 58 57 57 57 56 58 59 59 59 60
81 78 81 79 76 65 48 32 26 25 24 26 40 51 60 59 62 64 75 65 59 57 55 54 54 55 55 56 59 58 59 59 61
81 79 80 79 76 64 46 29 24 22 22 24 38 53 62 61 59 56 78 70 59 54 51 50 50 50 51 54 58 57 57 59 60
82 81 81 78 74 63 42 29 26 25 23 24 40 56 62 59 57 53 53 69 59 50 47 47 46 48 48 51 53 53 55 58 58
80 80 82 76 74 55 38 28 28 28 24 24 36 54 59 58 54 50 48 47 64 52 46 42 45 42 44 46 46 46 48 53 56
77 81 79 76 71 47 36 32 32 30 27 26 29 45 56 57 48 46 42 42 38 47 42 40 38 40 41 40 41 41 43 45 50
71 75 77 76 67 45 36 34 31 30 30 28 32 33 49 54 45 40 42 41 39 39 49 48 42 37 37 39 40 41 41 43 45
76 74 75 71 64 49 37 34 33 31 30 26 35 39 36 51 46 38 37 35 40 36 31 30 33 47 43 41 42 43 43 39 41
78 81 74 67 61 50 36 35 36 35 36 40 40 40 37 42 44 41 34 37 31 30 29 29 29 30 45 44 45 46 46 40 41
74 75 75 64 58 46 38 44 46 36 39 37 40 40 38 36 35 38 35 33 31 31 31 30 31 33 32 43 46 44 44 45 44
71 75 73 74 58 49 43 41 42 42 41 40 38 43 39 40 36 38 35 34 32 30 33 32 32 32 36 44 50 51 51 50 50
75 72 73 74 64 53 45 39 40 44 44 42 36 37 38 38 36 35 35 32 30 31 34 32 32 35 35 44 48 47 48 50 52
80 71 72 73 71 61 58 46 45 41 45 48 44 40 38 32 32 36 37 37 33 31 32 33 32 34 35 38 45 48 49 53 55
Wind_Speed
11 11 11 9 9 8 8 9 9 9 8 8 7 7 6 4 5 5 5 4 3 7 8 9 8 12 4 8 4 8 6 4 4
11 11 11 10 9 9 9 9 10 9 8 7 8 9 8 6 5 5 4 4 7 8 8 10 12 16 15 16 16 14 15 16 3
11 10 9 8 8 9 9 9 10 9 8 7 8 9 8 6 6 5 3 6 5 6 7 10 13 14 14 15 16 15 15 16 17
10 9 8 7 7 8 7 10 9 9 9 8 9 9 8 6 4 4 2 6 5 5 7 13 14 13 14 14 15 15 16 16 15
9 8 6 6 5 4 10 9 10 9 10 10 10 9 7 5 4 2 2 3 4 9 13 15 15 14 15 15 12 13 12 12 13
10 7 6 5 5 8 8 9 10 11 10 9 8 5 3 3 2 1 4 11 15 14 14 13 13 14 15 12 12 13 13 14 14
8 7 8 6 8 7 8 9 9 6 3 3 5 3 3 3 2 1 1 13 15 14 13 13 14 13 12 11 10 11 12 12 12
6 5 5 5 6 4 6 4 3 5 3 3 3 3 3 3 2 4 8 10 11 12 12 11 12 11 10 9 10 11 11 11 11
6 5 6 5 4 6 4 3 4 5 5 5 5 4 3 3 3 6 11 13 12 11 10 9 9 9 9 9 10 10 10 10 11
7 6 5 5 5 5 5 5 4 4 5 4 4 5 5 5 3 4 10 10 11 10 9 8 8 8 8 8 9 9 9 9 10
8 7 6 6 5 5 5 5 4 4 4 4 4 5 5 5 5 4 6 9 9 8 8 8 7 7 7 7 7 8 7 8 7
10 8 7 7 6 6 5 5 4 4 4 5 4 4 5 5 5 4 5 6 8 7 8 7 7 6 6 6 5 5 5 5 6
10 8 8 7 6 6 6 6 5 4 4 4 4 4 4 5 5 4 4 4 4 6 7 7 6 6 6 5 5 5 4 3 4
11 9 8 9 7 7 7 4 4 5 4 4 3 3 4 5 4 6 5 5 4 4 8 7 6 5 5 5 6 6 6 3 4
12 9 10 9 8 7 7 7 3 3 5 5 3 2 2 4 4 5 4 4 5 4 4 3 3 5 4 5 6 7 7 5 6
14 9 11 10 10 11 11 6 5 3 5 5 3 2 2 5 4 4 5 5 5 5 3 2 1 2 5 5 6 8 8 7 7
14 14 12 13 10 11 12 6 4 3 8 4 3 4 3 4 4 4 5 6 5 5 4 4 2 1 1 3 5 5 6 7 8
16 15 13 13 12 11 13 12 11 7 7 6 3 4 5 3 3 5 4 6 5 5 5 4 3 3 2 2 3 6 7 8 9
16 16 15 14 11 13 14 12 11 8 8 4 4 1 2 4 4 3 4 5 7 7 4 4 4 4 3 4 4 5 7 9 11
16 17 17 15 12 12 11 13 12 8 7 5 5 2 1 2 2 4 5 4 6 6 5 4 4 4 3 2 2 6 9 11 14
Wind_Direction
129 123 119 116 110 116 113 107 105 105 106 97 89 78 79 106 98 93 61 22 63 62 56 42 51 51 88 27 208 18 229 269 250
134 131 129 128 125 121 117 114 108 93 87 86 84 78 81 104 101 96 59 19 56 58 49 68 73 65 59 52 55 56 59 38 221
138 137 135 131 132 130 126 121 103 101 96 93 94 96 96 102 96 82 51 358 66 61 59 75 73 63 58 53 48 43 44 46 54
144 142 140 139 135 133 132 108 103 94 94 90 98 98 89 100 91 88 56 339 73 71 92 86 76 69 64 57 54 51 46 43 43
150 146 149 142 132 136 120 113 102 88 93 92 96 96 89 87 84 67 30 323 91 99 95 88 81 73 65 57 49 54 49 49 46
160 153 155 137 130 112 109 109 100 89 80 82 95 96 85 93 85 77 333 96 88 90 83 80 79 70 69 62 55 56 55 54 50
169 164 154 142 122 113 118 103 97 94 93 88 81 74 87 73 47 115 117 109 100 94 87 81 77 77 75 71 65 61 58 53 51
180 166 165 157 130 122 115 116 103 108 108 98 99 98 91 80 62 109 126 124 83 75 73 75 81 82 77 71 66 55 49 47 49
185 180 174 169 162 148 146 140 127 116 114 114 115 115 111 93 77 87 78 90 99 95 94 90 88 85 79 70 65 52 48 48 44
180 183 181 178 167 164 157 155 145 135 123 113 122 122 112 100 87 95 83 100 107 106 101 93 92 87 80 78 68 54 49 49 46
187 185 185 185 181 167 167 163 158 137 133 121 122 129 129 120 110 103 102 91 107 111 105 97 97 86 79 81 69 54 48 48 43
193 193 187 188 177 165 155 146 143 139 126 128 132 146 144 135 129 118 112 106 92 118 108 100 95 79 71 67 63 43 42 38 29
200 198 196 184 173 171 167 162 153 157 155 151 146 161 166 155 144 136 125 110 105 96 105 97 87 78 66 48 34 21 20 20 14
204 202 199 180 178 181 170 164 168 170 156 148 148 149 175 172 161 153 143 129 131 123 100 90 81 76 54 30 20 19 2 351 330
201 202 198 182 179 181 178 169 147 157 150 139 128 134 176 185 184 171 162 155 151 144 136 128 86 59 43 14 357 344 339 323 312
196 198 197 186 187 186 183 154 164 145 155 136 125 108 157 194 192 184 178 174 171 167 151 134 123 79 33 8 336 323 316 307 311
193 192 193 187 183 182 179 165 149 135 181 158 129 181 181 207 202 200 196 189 174 170 163 147 124 85 54 7 360 349 335 318 307
193 195 190 191 187 186 182 183 173 162 191 213 165 155 214 157 170 208 207 195 188 177 169 161 139 120 104 79 46 22 0 338 324
200 193 189 192 194 195 193 188 188 154 167 188 223 312 127 174 174 204 212 206 200 192 184 172 151 140 126 77 30 13 349 331 321
202 195 190 190 197 204 197 180 190 190 160 165 153 160 177 167 159 170 184 212 209 199 195 180 166 149 136 109 30 4 341 330 320